Date,TemperatureHighF,TemperatureAvgF,TemperatureLowF,DewpointHighF,DewpointAvgF,DewpointLowF,HumidityHigh,HumidityAvg,HumidityLow,PressureMaxIn,PressureMinIn,WindSpeedMaxMPH,WindSpeedAvgMPH,GustSpeedMaxMPH,PrecipitationSumIn
2013-6-1,96,79,60,54,45,38,45,31,20,0.00,40.00,0,-999,0,0.00
2013-6-2,90,74,63,54,46,41,47,37,28,0.00,40.00,0,-999,0,0.00
2013-6-3,82,70,59,54,47,42,55,45,34,0.00,40.00,0,-904,0,0.00
2013-6-4,76,65,57,54,49,44,69,56,43,0.00,40.00,0,-4,0,0.00
2013-6-5,78,65,57,54,49,46,71,58,42,0.00,40.00,0,-13,0,0.00
2013-6-6,84,64,56,58,51,46,73,62,39,0.00,40.00,0,-293,0,0.00
2013-6-7,98,76,58,64,53,47,70,48,28,0.00,40.00,0,-999,0,0.00
2013-6-8,106,84,69,61,52,47,46,35,21,0.00,40.00,0,-999,0,0.00
2013-6-9,80,70,62,56,51,48,62,51,42,0.00,40.00,0,-999,0,0.00
2013-6-10,76,68,60,54,51,47,69,54,45,0.00,40.00,0,-999,0,0.00
2013-6-11,83,69,59,58,51,47,68,54,40,0.00,40.00,0,-999,0,0.00
2013-6-12,83,69,58,53,46,41,61,45,30,0.00,40.00,0,-999,0,0.00
2013-6-13,85,69,54,52,45,41,62,44,30,0.00,40.00,0,-999,0,0.00
2013-6-14,90,74,57,50,42,37,50,34,21,0.00,40.00,0,-999,0,0.00
2013-6-15,80,67,58,51,44,35,58,44,33,0.00,40.00,0,-999,0,0.00
2013-6-16,84,69,55,54,48,43,68,49,31,0.00,40.00,0,-999,0,0.00
2013-6-17,80,68,58,54,49,44,66,52,39,0.00,40.00,0,-999,0,0.00
2013-6-18,76,66,59,52,49,46,67,55,41,0.00,40.00,0,-999,0,0.00
2013-6-19,79,67,56,52,47,43,68,50,34,0.00,40.00,0,-999,0,0.00
2013-6-20,83,68,55,54,46,40,60,45,31,0.00,40.00,0,-999,0,0.00
2013-6-21,87,71,56,54,46,42,61,43,29,0.00,40.00,0,-999,0,0.00
2013-6-22,91,73,57,54,46,40,53,39,22,0.00,40.00,0,-999,0,0.00
2013-6-23,71,65,60,58,53,46,71,65,51,0.00,40.00,0,-999,0,0.00
2013-6-24,69,65,61,60,58,54,80,76,71,0.00,40.00,0,-999,0,0.00
2013-6-25,79,68,64,65,60,57,79,74,61,0.00,40.00,0,-999,0,0.00
2013-6-26,88,76,66,69,61,55,79,62,43,0.00,40.00,0,-999,0,0.00
2013-6-27,95,79,64,65,58,52,70,51,33,0.00,40.00,0,-999,0,0.00
2013-6-28,102,86,67,63,54,49,55,37,22,0.00,40.00,0,-999,0,0.00
2013-6-29,104,88,70,58,52,46,43,30,19,0.00,40.00,0,-999,0,0.00
2013-6-30,99,85,70,58,51,46,44,32,21,0.00,40.00,0,-999,0,0.00